BMCB-35 Weather Reports


time (UTC)temp
C
wind
direction
speed
KPH
gust
KPH
rain 1hr
cm
rain 24hr
cm
rain mn
cm
humidity
%
barometer
mb
20260504151015 16 85 1.6 6.4 0.00 0.00 0.00 67 1013.4
20260504141010 16 87 3.2 6.4 0.00 0.00 0.00 70 1013.8
20260504141008 16 87 3.2 6.4 0.00 0.00 0.00 69 1013.9
20260504081027 13 69 3.2 8.0 0.00 0.00 0.00 72 1014.8
20260504081020 13 69 3.2 8.0 0.00 0.00 0.00 73 1014.9
20260504045029 7 187 0.0 0.0 0.00 0.00 0.00 94 1014.7
20260504044033 7 173 0.0 0.0 0.00 0.00 0.00 95 1014.7
20260504043031 7 212 0.0 0.0 0.00 0.00 0.00 95 1014.7
20260504041003 7 220 0.0 0.0 0.00 0.00 0.00 96 1014.7
20260504040034 7 220 0.0 0.0 0.00 0.00 0.00 96 1014.8
20260504035004 7 169 0.0 0.0 0.00 0.00 0.00 96 1014.8
20260504033004 7 309 0.0 0.0 0.00 0.00 0.00 97 1014.8
20260504032011 7 204 0.0 0.0 0.00 0.00 0.00 96 1014.9
20260504031008 7 204 0.0 0.0 0.00 0.00 0.00 96 1014.8
20260504030009 7 220 0.0 0.0 0.00 0.00 0.00 96 1014.8
20260504025008 7 198 0.0 0.0 0.00 0.00 0.00 95 1014.8
20260504024004 7 194 0.0 0.0 0.00 0.00 0.00 95 1014.7
20260504023030 7 194 0.0 0.0 0.00 0.00 0.00 94 1014.7
20260504021010 8 124 0.0 1.6 0.00 0.00 0.00 94 1014.6
20260504015022 8 146 0.0 0.0 0.00 0.00 0.00 93 1014.8
20260504014031 8 243 0.0 0.0 0.00 0.00 0.00 93 1014.8
20260504013003 8 208 0.0 0.0 0.00 0.00 0.00 92 1014.7
20260504012014 8 325 0.0 0.0 0.00 0.00 0.00 92 1014.8
20260504011008 8 190 0.0 0.0 0.00 0.00 0.00 92 1014.8
20260504010033 8 190 0.0 0.0 0.00 0.00 0.00 92 1014.8
20260504005032 8 234 0.0 0.0 0.00 0.00 0.00 92 1014.8
20260504004012 8 241 0.0 1.6 0.00 0.00 0.00 92 1014.7
20260504003031 8 241 0.0 1.6 0.00 0.00 0.00 92 1014.6
20260504002036 8 194 0.0 0.0 0.00 0.00 0.00 92 1014.6
20260504001036 8 234 0.0 0.0 0.00 0.00 0.00 91 1014.6
20260503235041 9 176 0.0 0.0 0.00 0.00 0.00 89 1014.6
20260503234010 9 184 0.0 0.0 0.00 0.00 0.00 89 1014.5
20260503233011 9 185 0.0 0.0 0.00 0.00 0.00 89 1014.5
20260503232039 9 185 0.0 0.0 0.00 0.00 0.00 88 1014.5
20260503231037 9 210 0.0 0.0 0.00 0.00 0.00 88 1014.5
20260503230016 10 218 0.0 0.0 0.00 0.00 0.00 88 1014.5
20260503224008 10 280 0.0 0.0 0.00 0.00 0.00 87 1014.6
20260503223033 10 280 0.0 0.0 0.00 0.00 0.00 86 1014.5
20260503222010 10 191 0.0 3.2 0.00 0.00 0.00 85 1014.5
20260503221024 10 191 0.0 3.2 0.00 0.00 0.00 85 1014.5
20260503220032 10 195 0.0 1.6 0.00 0.00 0.00 84 1014.4
20260503215043 11 208 0.0 0.0 0.00 0.00 0.00 82 1014.4
20260503211004 11 255 0.0 1.6 0.00 0.00 0.00 79 1014.2
20260503210009 11 181 0.0 1.6 0.00 0.00 0.00 80 1014.3
20260503205016 11 181 0.0 1.6 0.00 0.00 0.00 80 1014.3
20260503204010 11 167 0.0 0.0 0.00 0.00 0.00 81 1014.3
20260503203042 11 167 0.0 0.0 0.00 0.00 0.00 81 1014.3
20260503202035 11 266 0.0 0.0 0.00 0.00 0.00 80 1014.2
20260503200036 12 192 0.0 0.0 0.00 0.00 0.00 78 1014.2
20260503195009 12 192 0.0 0.0 0.00 0.00 0.00 77 1014.2
20260503194015 12 192 0.0 0.0 0.00 0.00 0.00 76 1014.1
20260503193014 13 175 0.0 1.6 0.00 0.00 0.00 75 1014.1
20260503192040 13 175 0.0 1.6 0.00 0.00 0.00 75 1014.0
20260503191010 13 183 0.0 0.0 0.00 0.00 0.00 74 1013.9
20260503190041 14 183 0.0 0.0 0.00 0.00 0.00 73 1013.8
20260503185041 15 182 0.0 0.0 0.00 0.00 0.00 71 1013.7
20260503184010 16 179 0.0 0.0 0.00 0.00 0.00 63 1013.4
20260503182038 16 227 1.6 3.2 0.00 0.00 0.00 59 1013.3
20260503181041 16 350 1.6 4.8 0.00 0.00 0.00 58 1013.2
20260503180029 16 66 1.6 6.4 0.00 0.00 0.00 57 1013.1
20260503175010 16 75 1.6 6.4 0.00 0.00 0.00 58 1013.2
20260503174009 16 352 1.6 4.8 0.00 0.00 0.00 57 1013.3
20260503173004 16 7 1.6 4.8 0.00 0.00 0.00 57 1013.3
20260503172024 16 7 1.6 4.8 0.00 0.00 0.00 58 1013.4